Regional Weather Roundup
Issued by NWS Jackson, KY

Home | Current Version | Previous Version | Graphics & Text | Print | Product List | Glossary On
Versions: 1 2 3 4 5 6 7 8 9 10 11 12 13 14 15 16 17 18 19 20 21 22 23 24 25 26
000
ASUS43 KJKL 231810
RWRJKL

EAST KENTUCKY HOURLY WEATHER ROUNDUP
NATIONAL WEATHER SERVICE JACKSON KY
200 PM EDT SUN APR 23 2017

NOTE: "FAIR" INDICATES FEW OR NO CLOUDS BELOW 12,000 FEET WITH
NO SIGNIFICANT WEATHER AND/OR OBSTRUCTIONS TO VISIBILITY.

* THESE REPORTS ARE NOT UNDER NWS QUALITY CONTROL AND MAY NOT
  REPORT WEATHER SUCH AS PRECIPITATION AND FOG.

KYZ079-080-083-085-087-088-110-112-115-119-120-231900
...EASTERN KENTUCKY...

CITY           SKY/WX    TMP DP  RH WIND       PRES   REMARKS
JACKSON        LGT RAIN  49  48  97 VRB3      29.93F FOG
6HR MIN TEMP:  46; 6HR MAX TEMP:  49; 6HR PCP:  0.32;

LONDON         LGT RAIN  52  49  89 NE8       29.87F
6HR MIN TEMP:  47; 6HR MAX TEMP:  51; 6HR PCP:  0.70;

SOMERSET*      RAIN      50  50 100 N8        29.90S
MONTICELLO*    RAIN      51  50  96 N21       29.90S
6HR MIN TEMP:  48; 6HR MAX TEMP:  52; 6HR PCP:  0.61;

WILLIAMSBURG*  CLOUDY    54  54 100 CALM      29.85F
MIDDLESBORO*   RAIN      55  54  98 CALM      29.86F
6HR MIN TEMP:  51; 6HR MAX TEMP:  55; 6HR PCP:  1.13;

HARLAN APT*    CLOUDY    54  52  94 NE5       29.87F
PIKE CO APT*   LGT RAIN  50  50 100 N6        29.95S VSB 1/2
BIG SANDY APT* RAIN      52  52 100 NE7       29.96S
6HR MIN TEMP:  47; 6HR MAX TEMP:  53;

MOREHEAD APT*  CLOUDY    54  43  66 NE9G17    29.98F
ASHLAND*       CLOUDY    57  46  67 E7        29.98F
$$

KYZ035-036-041-042-044-050-067-078-099-231900
...CENTRAL KENTUCKY...

CITY           SKY/WX    TMP DP  RH WIND       PRES   REMARKS
MT STERLING*   LGT RAIN  52  46  82 E15       29.96F
FLEMING/MASON* CLOUDY    57  45  64 E10G18    29.98F
DANVILLE*      LGT RAIN  46  45  93 NE7       29.94F
LEXINGTON      CLOUDY    54  44  69 NE15      29.95R
6HR MIN TEMP:  45; 6HR MAX TEMP:  54;

FRANKFORT      CLOUDY    57  42  57 N9        29.95S
6HR MIN TEMP:  46; 6HR MAX TEMP:  57;

LOUISVILLE     CLOUDY    63  41  44 NE18      29.95S
6HR MIN TEMP:  47; 6HR MAX TEMP:  64;

LEBANON*       CLOUDY    48  45  87 N10       29.95F
GLASGOW*       LGT RAIN N/A N/A N/A NE12G18   29.89F
BOWLING GREEN  LGT RAIN  52  49  89 NE9       29.90F
6HR MIN TEMP:  48; 6HR MAX TEMP:  51; 6HR PCP:  0.40;

$$

KYZ091>093-OHZ055-061-077-WVZ005-015-034-035-042-231900
...SOUTHERN OHIO/WEST VIRGINIA...

CITY           SKY/WX    TMP DP  RH WIND       PRES   REMARKS
COVINGTON      CLOUDY    59  36  42 NE17      29.98F
COLUMBUS       MOSUNNY   68  36  30 NE12      30.01F
DAYTON         CLOUDY    66  34  30 NE13      30.02F
WILMINGTON     CLOUDY    59  39  47 NE9       30.02R
HUNTINGTON     CLOUDY    55  44  66 NE6       29.99R
CHARLESTON     LGT RAIN  57  46  66 NE3       30.00S
PINEVILLE*     HVY RAIN  50  48  92 MISG      30.03S
BECKLEY        CLOUDY    49  44  83 E10G22    30.00F
BLUEFIELD      LGT RAIN  43  40  89 E9        30.00F
LOGAN CO APT*  CLOUDY    55  46  71 CALM      29.97F
$$

VAZ002-007-008-TNZ017-027-036-066-071-231900
...SOUTHWEST VIRGINIA/EAST TENNESSEE...

CITY           SKY/WX    TMP DP  RH WIND       PRES   REMARKS
WISE*          RAIN      50  50 100 CALM      29.94F
JONESVILLE*    RAIN      54  54 100 E9        29.89F
ABINGDON*      RAIN      49  48  95 E17G23    29.95F
BRISTOL        RAIN      52  50  93 VRB5      29.91F FOG
MORRISTOWN*    MOCLDY    55  55 100 E13G22    29.82S FOG
SEVIERVILLE*   CLOUDY    59  57  94 NE7       29.78F
KNOXVILLE      LGT RAIN  60  57  89 E9        29.76F FOG
LAFOLLETTE*    CLOUDY    55  54  94 N6G12     29.85S FOG
OAK RIDGE      HVY RAIN  57  55  93 VRB3      29.81R VSB 1
CROSSVILLE     LGT RAIN  54  52  93 N6        29.82S
NASHVILLE      LGT RAIN  51  49  92 N16       29.86S FOG
$$

...KEY TO REMARKS...
VSB - VISIBILITY IN MILES
WCI - WIND CHILL INDEX
HX  - HEAT INDEX

$$




USA.gov is the U.S. government's official web portal to all federal, state and local government web resources and services.